Location: Newark
(54.8333°N, 21.6000°E)
Time: 10:16:49
(UTC+00:00)

N. Korean satellite - Visible Passes

Search period start: 21 October 2019 00:00
Search period end: 31 October 2019 00:00
Orbit: 455 x 508 km, 97.2° (Epoch: 20 October)

Date Brightness Start Highest point End Pass type
(mag) Time Alt. Az. Time Alt. Az. Time Alt. Az.
21 Oct 7.8 04:20:42 10° NNE 04:24:12 47° E 04:27:43 10° S visible
21 Oct 9.9 16:37:40 10° SW 16:39:56 16° W 16:42:14 10° NW visible
22 Oct 9.1 03:55:39 10° NE 03:58:46 26° E 04:01:54 10° SSE visible
22 Oct 8.9 16:11:23 10° SSW 16:14:25 28° W 16:17:30 10° NNW visible
23 Oct 10.0 03:30:59 10° NE 03:33:15 16° E 03:35:31 10° SE visible
24 Oct 6.9 04:38:04 10° NNE 04:41:42 73° ESE 04:45:22 10° S visible
24 Oct 10.3 16:56:28 10° WSW 16:57:35 11° W 16:58:43 10° WNW visible
25 Oct 8.2 04:12:52 10° NNE 04:16:19 39° E 04:19:48 10° SSE visible
25 Oct 9.6 16:29:24 10° SW 16:32:00 20° W 16:34:38 10° NW visible
26 Oct 9.4 03:47:54 10° NE 03:50:52 23° E 03:53:50 10° SSE visible
26 Oct 8.5 16:03:17 10° SSW 16:06:29 34° W 16:09:45 10° NNW visible
27 Oct 10.2 03:23:24 10° NE 03:25:18 14° E 03:27:12 10° ESE visible
28 Oct 7.3 04:30:11 10° NNE 04:33:49 61° E 04:37:29 10° S visible
28 Oct 10.1 16:47:46 10° WSW 16:49:35 14° W 16:51:25 10° NW visible
29 Oct 8.6 04:05:01 10° NNE 04:08:25 33° E 04:11:47 10° SSE visible
29 Oct 9.3 16:21:10 10° SSW 16:24:00 23° W 16:26:56 10° NW visible
30 Oct 9.6 03:40:09 10° NE 03:42:54 20° E 03:45:40 10° SE visible
30 Oct 8.1 15:55:11 10° S 15:58:31 41° W 16:01:56 10° NNW visible
